Hart Island, Nova Scotia

4:04 PM AST on December 09, 2016 (GMT -0400)
Hart Island

Weather History for CWRN - October, 2011

Change the Weather History Date:

Tuesday, October 4, 2011

  Actual Average Record
Temperature  
Mean Temperature 58 °F -  
Max Temperature 60 °F - - ()
Min Temperature 56 °F - - ()
Degree Days  
Heating Degree Days 7    
Growing Degree Days 8 (Base 50)    
Moisture  
Dew Point 55 °F    
Average Humidity 90    
Maximum Humidity 100    
Minimum Humidity 73    
Precipitation  
Precipitation 0.00 in - - ()
Sea Level Pressure  
Sea Level Pressure 30.04 in    
Wind  
Wind Speed 7 mph ()    
Max Wind Speed 18 mph    
Max Gust Speed 24 mph    
T = Trace of Precipitation, MM = Missing Value Source: Averaged Metar Reports

Daily Weather History Graph

Daily Weather History Graph

Search for Another Location

Airport or City:

Trip Planner

Search our weather history database for the weather conditions in past years. The results will help you decide how hot, cold, wet, or windy it might be!

Date:

Astronomy

Oct. 04, 2011 Rise Set
Actual Time 7:05 AM ADT 6:39 PM ADT
Civil Twilight 6:35 AM ADT 7:08 PM ADT
Nautical Twilight 6:01 AM ADT 7:42 PM ADT
Astronomical Twilight 5:27 AM ADT 8:17 PM ADT
Moon 2:55 PM ADT (10/4) No Moon Set
Length of Visible Light 12h 32m
Length of Day
11h 33m
First Quarter, 55% of the Moon is Illuminated
Oct 4
First Quarter
Oct 11
Full
Oct 20
Last Quarter
Oct 26
New
Nov 2
First Quarter

Hourly Weather History & Observations

Time (ADT) Temp. Dew Point Humidity Pressure Visibility Wind Dir Wind Speed Gust Speed Precip Events Conditions
1:00 AM 60.3 °F 58.6 °F 94% 30.12 in - North 5.8 mph - N/A   Unknown
2:00 AM 59.5 °F 58.8 °F 97% 30.11 in - NNE 3.5 mph - N/A   Unknown
3:00 AM 59 °F 58 °F 97% 30.11 in - ENE 4.6 mph - -  
5:00 AM 58.5 °F 57.7 °F 97% 30.10 in - NE 6.9 mph - N/A   Unknown
6:00 AM 57.7 °F 57.4 °F 99% 30.10 in - ENE 6.9 mph - N/A   Unknown
8:00 AM 56.7 °F 56.3 °F 99% 30.13 in - NE 8.1 mph - N/A   Unknown
9:00 AM 56 °F 56 °F 100% 30.13 in - NE 9.2 mph - -  
9:00 AM 56.5 °F 55.9 °F 98% 30.13 in - NE 9.2 mph - N/A   Unknown
10:00 AM 56.7 °F 55.8 °F 97% 30.12 in - ENE 9.2 mph - N/A   Unknown
11:00 AM 57.2 °F 54.5 °F 91% 30.12 in - ENE 9.2 mph - N/A   Unknown
1:00 PM 58.3 °F 53.6 °F 84% 30.09 in - ENE 9.2 mph - N/A   Unknown
2:00 PM 58.3 °F 52.2 °F 80% 30.09 in - ENE 8.1 mph - N/A   Unknown
3:00 PM 59 °F 53 °F 73% 30.05 in - East 10.4 mph - -  
3:00 PM 58.8 °F 52.5 °F 80% 30.05 in - East 10.4 mph - N/A   Unknown
5:00 PM 57.9 °F 53.6 °F 86% 30.01 in - ENE 9.2 mph - N/A   Unknown
6:00 PM 57.9 °F 54.1 °F 87% 29.97 in - ENE 8.1 mph - N/A   Unknown
7:00 PM 58.1 °F 52.0 °F 80% 29.94 in - NE 15.0 mph - N/A   Unknown
8:00 PM 57.9 °F 53.4 °F 85% 29.92 in - ENE 13.8 mph 21.9 mph N/A   Unknown
9:00 PM 57 °F 54 °F 86% 29.92 in - ENE 12.7 mph - -  
9:00 PM 57.4 °F 54.0 °F 88% 29.92 in - ENE 12.7 mph - N/A   Unknown
10:00 PM 57.6 °F 54.7 °F 90% 29.88 in - ENE 13.8 mph 20.7 mph N/A   Unknown
11:00 PM 57.7 °F 54.5 °F 89% 29.82 in - NE 18.4 mph 24.2 mph N/A   Unknown